This demonstration page uses our WeatherBlox Daily Observations layout. Learn more.

36.17497, -115.13722

Hourly Observations for January 24, 2020

Temp ( °F °C ) Dew Point ( °F °C ) Humidity (%) Winds ( mph kmh ) Pressure ( in mb ) Visibility ( mi km ) Precip ( " mm )
12:53 am 00:53 Clear 48 8.9 30 -1.1 50 50 WNW 5 7 30.13 1020 10 16.0934 0 0
1:53 am 01:53 Clear 45 7.2 31 -0.6 58 58 Calm 30.13 1020 10 16.0934 0 0
2:53 am 02:53 Clear 45 7.2 28 -2.2 52 52 WNW 7 11 30.12 1020 10 16.0934 0 0
3:53 am 03:53 Clear 46 7.8 28 -2.2 50 50 NW 5 7 30.12 1020 10 16.0934 0 0
4:53 am 04:53 Clear 44 6.7 27 -2.8 51 51 WNW 7 11 30.11 1020 10 16.0934 0 0
5:53 am 05:53 Clear 43 6.1 27 -2.8 53 53 NW 6 9 30.13 1020 10 16.0934 0 0
6:53 am 06:53 Sunny 45 7.2 27 -2.8 49 49 Calm 30.13 1020 10 16.0934 0 0
7:53 am 07:53 Sunny 47 8.3 29 -1.7 50 50 NW 6 9 30.14 1021 10 16.0934 0 0
8:53 am 08:53 Sunny 52 11.1 29 -1.7 41 41 Calm 30.14 1021 10 16.0934 0 0
9:53 am 09:53 Sunny 56 13.3 28 -2.2 34 34 Calm 30.15 1021 10 16.0934 0 0
10:53 am 10:53 Sunny 59 15 28 -2.2 31 31 Calm 30.13 1020 10 16.0934 0 0
11:53 am 11:53 Sunny 62 16.7 29 -1.7 29 29 VRB 3 6 30.1 1019 10 16.0934 0 0
12:53 pm 12:53 Sunny 63 17.2 30 -1.1 29 29 Calm 30.06 1018 10 16.0934 0 0
1:53 pm 13:53 Sunny 65 18.3 30 -1.1 27 27 Calm 30.04 1017 10 16.0934 0 0
2:53 pm 14:53 Sunny 65 18.3 30 -1.1 27 27 Calm 30.04 1017 10 16.0934 0 0
3:53 pm 15:53 Sunny 65 18.3 30 -1.1 27 27 Calm 30.02 1017 10 16.0934 0 0
4:53 pm 16:53 Sunny 63 17.2 29 -1.7 28 28 Calm 30.03 1017 10 16.0934 0 0
5:53 pm 17:53 Clear 60 15.6 30 -1.1 32 32 Calm 30.04 1017 10 16.0934 0 0
6:53 pm 18:53 Clear 55 12.8 31 -0.6 40 40 WNW 6 9 30.06 1018 10 16.0934 0 0
7:53 pm 19:53 Clear 53 11.7 32 0 45 45 NW 5 7 30.07 1018 10 16.0934 0 0
8:53 pm 20:53 Clear 51 10.6 32 0 48 48 N 5 7 30.08 1019 10 16.0934 0 0
9:53 pm 21:53 Clear 50 10 31 -0.6 48 48 W 7 11 30.09 1019 10 16.0934 0 0
10:53 pm 22:53 Clear 49 9.4 32 0 52 52 Calm 30.09 1019 10 16.0934 0 0
11:53 pm 23:53 Clear 49 9.4 31 -0.6 50 50 Calm 30.1 1019 10 16.0934 0 0

Powered by AerisWeather